Terminal Aerodrome Forecast
Issued by NWS

Home | Current Version | Previous Version | Graphics & Text | Print | Product List | Glossary On
Versions: 1 2 3 4 5 6 7 8 9 10 11 12 13 14 15 16 17 18 19 20
666
FTUS43 KBIS 211405 AAA
TAFMOT
TAF AMD
KMOT 211405Z 2114/2212 13016G24KT P6SM FEW050
     FM220800 16013KT P6SM BKN025=

USA.gov is the U.S. government's official web portal to all federal, state and local government web resources and services.